[[{"header":{"parameterUnit":"m.s-1","parameterCategory":1,"la1":30.2991,"la2":30.254,"lo1":-89.0895,"lo2":-89.0444,"dy":0.0017,"dx":0.0017,"nx":28,"ny":28,"refTime":"2025-07-13T09:00:00:Z","depth":0,"parameterNumber":2,"parameterNumberName":"U-component_of_WINDS"},"data":[0,0,0,0,0,0,0,0,0,0,0,0,0,0,0,0,0,0,0,0,0,0,0,0,0,0,0,0,0,0,0,0,0,0,0,0,0,0,0,0,0,0,0,0,0,0,0,0,0,0,0,0,0,0,0,0,0,0,2.3569,2.357,0,2.369,2.3691,2.3693,2.3661,2.3659,2.3656,2.3654,2.378,2.3785,2.3791,0,0,0,0,0,0,0,0,0,0,0,0,0,2.3312,2.3317,2.3569,2.3571,2.3572,2.369,2.3691,2.3693,2.3661,2.3658,2.3655,2.3653,2.3778,2.3785,2.3791,0,0,0,0,0,0,0,0,0,0,0,0,0,2.3428,2.3319,2.3569,2.357,2.3572,2.3689,2.3692,2.3694,2.3662,2.3658,2.3655,2.3651,2.3776,2.3784,2.3792,2.3917,0,0,2.3818,2.3822,0,0,0,0,0,0,0,0,2.3421,2.3437,2.3569,2.357,2.3572,2.3657,2.3647,2.3769,2.3663,2.3628,2.3654,2.365,2.3742,2.3753,2.3784,2.3923,2.3928,2.3819,2.3824,2.3828,2.383,0,0,0,0,0,0,0,2.3413,2.3432,2.3617,2.3571,2.3573,2.3566,2.3578,2.367,2.3704,2.3631,2.3629,2.3643,2.3742,2.3776,2.3786,2.393,2.3819,2.3826,2.3831,2.3835,2.4177,2.4181,0,0,0,0,0,0,2.3403,2.3425,2.3613,2.3621,2.3486,2.3573,2.3587,2.3633,2.3703,2.371,2.3646,2.3641,2.3763,2.3777,2.3791,2.3941,2.3827,2.3835,2.384,2.4173,2.4178,2.4182,0,0,0,0,0,0,2.3398,2.3421,2.3608,2.3522,2.3546,2.3581,2.3634,2.3638,2.3671,2.3714,2.372,2.3674,2.3761,2.3779,2.3885,2.3945,2.3839,2.3847,2.4168,2.4174,2.418,2.4243,0,0,0,0,0,0,2.3391,2.3419,2.3466,2.3524,2.355,2.3701,2.3637,2.3643,2.3685,2.368,2.3742,2.3749,2.3759,2.3873,2.3894,2.3955,2.3853,2.4163,2.4171,2.4178,2.4236,2.4251,2.4263,0,0,0,0,0,2.3382,2.348,2.3469,2.3492,2.361,2.3704,2.372,2.3729,2.369,2.3738,2.3766,2.3747,2.3935,2.3884,2.3907,2.3972,2.4159,2.4169,2.4178,2.423,2.4248,2.4263,0,0,0,0,0,0,2.3429,2.3487,2.3476,2.3595,2.3645,2.3699,2.376,2.3748,2.381,2.3803,2.3812,2.3826,2.3936,2.3964,2.3907,2.4096,2.4042,2.4056,2.4073,2.4091,2.4104,2.4096,2.386,0,0,0,0,0,2.3453,2.3524,2.3571,2.3672,2.3697,2.3724,2.3766,2.3768,2.3821,2.3842,2.3877,2.393,2.4,2.4047,2.4114,2.4239,2.4253,2.4295,2.4309,2.4319,2.4332,2.4401,2.442,2.4212,2.4212,2.4212,0,0,2.3505,2.3545,2.3589,2.3683,2.3721,2.3795,2.3742,2.3823,2.3878,2.3854,2.3957,2.3985,2.4044,2.416,2.4213,2.4187,2.4392,2.4331,2.434,2.4346,2.4412,2.4432,2.4449,2.4218,2.4217,2.4216,0,0,2.3635,2.3673,2.3761,2.3801,2.386,2.3877,2.3898,2.3954,2.3971,2.4074,2.4058,2.4123,2.4245,2.4288,2.4325,2.4471,2.4456,2.4493,2.4565,2.4631,2.4648,2.4662,2.4715,2.4734,2.4505,2.4505,2.4505,0,2.3692,2.3802,2.3808,2.389,2.3931,2.3912,2.4002,2.404,2.4119,2.4148,2.4118,2.427,2.4308,2.4434,2.4469,2.45,2.4525,2.4487,2.4645,2.4659,2.4673,2.4724,2.4743,2.4509,2.4509,2.4508,2.4508,0,2.3869,2.3945,2.4009,2.4085,2.4133,2.4219,2.4238,2.4287,2.4285,2.4305,2.441,2.4455,2.4531,2.4561,2.456,2.4688,2.467,2.4642,2.4588,2.4697,2.4745,2.4764,2.4515,2.4514,2.4512,2.4511,0,0,2.4035,2.4111,2.4135,2.4169,2.4232,2.4292,2.4376,2.4449,2.4491,2.4546,2.4617,2.472,2.4695,2.4737,2.4741,2.4799,2.4913,2.4764,2.4766,2.4791,2.5056,2.5077,2.51,2.4902,2.4906,2.4909,2.5051,0,2.4172,2.432,2.4327,2.4462,2.4533,2.4515,2.4588,2.4635,2.4656,2.472,2.4743,2.4816,2.4777,2.4802,2.4859,2.4887,2.4966,2.4876,2.497,2.4973,2.4957,2.5124,2.5147,2.528,2.507,2.5073,2.5075,0,2.4353,2.4412,2.4553,2.4606,2.4636,2.4702,2.477,2.483,2.4883,2.4894,2.4942,2.4937,2.5023,2.4965,2.5085,2.5024,2.5062,2.5082,2.5087,2.5097,2.5032,2.514,2.5322,2.5343,2.5105,2.5102,2.51,0,2.4461,2.4576,2.4675,2.4705,2.4768,2.4815,2.4844,2.4893,2.4937,2.4996,2.5025,2.5093,2.5132,2.5185,2.5199,2.5155,2.532,2.5262,2.5332,2.5332,2.5369,2.5367,2.5561,2.5392,2.5391,2.5391,2.5391,0,2.4614,2.4702,2.4724,2.4786,2.4884,2.4891,2.4987,2.5013,2.5057,2.5123,2.5112,2.5174,2.5188,2.5254,2.5265,2.5364,2.5381,2.5393,2.5395,2.5395,2.5393,2.5421,2.5413,2.5396,2.5395,2.5394,2.5393,0,2.4753,2.4771,2.4878,2.4929,2.4944,2.5014,2.5058,2.5117,2.5135,2.522,2.524,2.527,2.5347,2.5365,2.5457,2.5465,2.5581,2.5574,2.5563,2.5563,2.5632,2.5626,2.5852,2.5882,2.5692,2.5694,2.5695,0,2.485,2.4917,2.4974,2.5018,2.5048,2.5118,2.5162,2.5172,2.5218,2.5283,2.5335,2.5409,2.547,2.5593,2.5624,2.5694,2.5689,2.5763,2.57,2.5697,2.5691,2.5688,2.5695,2.5776,2.5778,2.578,2.5781,0,2.5021,2.5027,2.509,2.5158,2.521,2.5264,2.5314,2.5351,2.5367,2.542,2.5498,2.5545,2.5637,2.5712,2.5782,2.5812,2.5801,2.58,2.582,2.5822,2.5813,2.5819,2.5597,2.5796,2.5794,2.5793,2.5792,2.5792,2.5143,2.5202,2.5251,2.5322,2.5361,2.5409,2.5467,2.5492,2.5557,2.5632,2.5634,2.5719,2.5769,2.5862,2.5896,2.5963,2.5941,2.5969,2.5977,2.5984,2.5991,2.5801,2.5976,2.5975,2.5975,2.5975,2.5974,0,2.5315,2.5345,2.541,2.5481,2.5538,2.5519,2.5574,2.5623,2.5697,2.5745,2.5804,2.5893,2.5966,2.6001,2.6073,2.6119,2.6116,2.6138,2.6135,2.6143,2.6006,2.5982,2.614,2.614,2.614,2.614,2.614,2.614,2.5411,2.5509,2.552,2.5637,2.5667,2.5749,2.5782,2.5826,2.5864,2.5964,2.6024,2.6046,2.6089,2.6163,2.6229,2.6237,2.6265,2.6291,2.6297,2.6169,2.6152,2.6136,2.6114,2.6296,2.6296,2.6427,2.6428,2.6429]},{"header":{"parameterUnit":"m.s-1","parameterCategory":1,"la1":30.2991,"la2":30.254,"lo1":-89.0895,"lo2":-89.0444,"dy":0.0017,"dx":0.0017,"nx":28,"ny":28,"refTime":"2025-07-13T09:00:00:Z","depth":0,"parameterNumber":3,"parameterNumberName":"V-component_of_WINDS"},"data":[0,0,0,0,0,0,0,0,0,0,0,0,0,0,0,0,0,0,0,0,0,0,0,0,0,0,0,0,0,0,0,0,0,0,0,0,0,0,0,0,0,0,0,0,0,0,0,0,0,0,0,0,0,0,0,0,0,0,-1.7232,-1.7232,0,-1.7293,-1.7294,-1.7295,-1.7315,-1.7315,-1.7315,-1.7314,-1.7378,-1.738,-1.7382,0,0,0,0,0,0,0,0,0,0,0,0,0,-1.7132,-1.7134,-1.7232,-1.7232,-1.7233,-1.7293,-1.7294,-1.7295,-1.7315,-1.7315,-1.7315,-1.7314,-1.7377,-1.738,-1.7382,0,0,0,0,0,0,0,0,0,0,0,0,0,-1.7183,-1.7134,-1.7231,-1.725,-1.7253,-1.7293,-1.7294,-1.7295,-1.7315,-1.7315,-1.7314,-1.7314,-1.7377,-1.738,-1.7382,-1.7408,0,0,-1.7391,-1.7393,0,0,0,0,0,0,0,0,-1.718,-1.7186,-1.7247,-1.7249,-1.7252,-1.7296,-1.7282,-1.7333,-1.7315,-1.7292,-1.7314,-1.7314,-1.7351,-1.7356,-1.7369,-1.7411,-1.7414,-1.7392,-1.7393,-1.7395,-1.7395,0,0,0,0,0,0,0,-1.7176,-1.7184,-1.7256,-1.7248,-1.7251,-1.7256,-1.7263,-1.7292,-1.7323,-1.7294,-1.7295,-1.7302,-1.7352,-1.7366,-1.737,-1.7415,-1.7391,-1.7394,-1.7396,-1.7397,-1.7483,-1.7483,0,0,0,0,0,0,-1.717,-1.7181,-1.7254,-1.7258,-1.7214,-1.7258,-1.7266,-1.7282,-1.7323,-1.7328,-1.7303,-1.7303,-1.7361,-1.7367,-1.7373,-1.7406,-1.7395,-1.7397,-1.7399,-1.7482,-1.7483,-1.7484,0,0,0,0,0,0,-1.7167,-1.7176,-1.7252,-1.722,-1.723,-1.726,-1.7279,-1.7284,-1.7297,-1.7329,-1.7335,-1.731,-1.7361,-1.7368,-1.7399,-1.7408,-1.7399,-1.7401,-1.7482,-1.7483,-1.7483,-1.7472,0,0,0,0,0,0,-1.7164,-1.7175,-1.7185,-1.722,-1.7232,-1.7277,-1.7279,-1.7285,-1.7302,-1.7303,-1.7338,-1.7344,-1.7361,-1.7395,-1.7402,-1.7412,-1.7404,-1.7481,-1.7482,-1.7483,-1.7472,-1.7473,-1.7473,0,0,0,0,0,-1.7161,-1.7179,-1.7185,-1.7194,-1.7244,-1.7277,-1.7284,-1.7304,-1.7303,-1.7313,-1.7334,-1.7343,-1.7406,-1.7398,-1.7406,-1.7417,-1.7481,-1.7482,-1.7483,-1.7472,-1.7472,-1.7473,0,0,0,0,0,0,-1.7144,-1.7184,-1.7191,-1.7222,-1.7246,-1.7281,-1.7294,-1.7304,-1.7329,-1.7329,-1.7353,-1.7361,-1.739,-1.7407,-1.7397,-1.7445,-1.7444,-1.7447,-1.7432,-1.7433,-1.7434,-1.7429,-1.7406,0,0,0,0,0,-1.7144,-1.7168,-1.7201,-1.7225,-1.7237,-1.7263,-1.7279,-1.7292,-1.7318,-1.7328,-1.7352,-1.7377,-1.7403,-1.7419,-1.7445,-1.7475,-1.7483,-1.7487,-1.7487,-1.7488,-1.749,-1.7507,-1.7509,-1.7488,-1.7488,-1.7488,0,0,-1.7144,-1.7169,-1.7182,-1.7222,-1.7243,-1.7266,-1.7272,-1.7297,-1.7315,-1.7332,-1.7363,-1.7381,-1.7411,-1.7441,-1.7456,-1.7456,-1.7498,-1.7489,-1.7489,-1.7491,-1.7509,-1.7511,-1.7512,-1.7488,-1.7488,-1.7488,0,0,-1.7156,-1.7177,-1.7199,-1.722,-1.7251,-1.7269,-1.7274,-1.7308,-1.732,-1.7351,-1.7365,-1.7387,-1.7431,-1.7452,-1.7468,-1.7489,-1.7498,-1.7497,-1.75,-1.7517,-1.7518,-1.752,-1.7527,-1.753,-1.7499,-1.7499,-1.7499,0,-1.7152,-1.7189,-1.721,-1.7234,-1.7251,-1.7268,-1.7291,-1.731,-1.7348,-1.7359,-1.7359,-1.7415,-1.7437,-1.7473,-1.7478,-1.7491,-1.7497,-1.7493,-1.7516,-1.7518,-1.752,-1.7527,-1.753,-1.7499,-1.7499,-1.7499,-1.7499,0,-1.7182,-1.7207,-1.7221,-1.7257,-1.7276,-1.7299,-1.7324,-1.7341,-1.7353,-1.7371,-1.7403,-1.7429,-1.7461,-1.747,-1.7482,-1.7508,-1.7507,-1.7512,-1.7511,-1.7521,-1.7529,-1.7532,-1.7498,-1.7498,-1.7499,-1.7499,0,0,-1.7185,-1.7232,-1.7237,-1.7254,-1.729,-1.731,-1.7334,-1.7365,-1.7379,-1.7405,-1.7426,-1.7463,-1.7467,-1.7486,-1.75,-1.7515,-1.753,-1.7518,-1.7519,-1.7519,-1.7561,-1.7557,-1.756,-1.7537,-1.7537,-1.7538,-1.7558,0,-1.7201,-1.7245,-1.7265,-1.73,-1.7323,-1.7341,-1.7362,-1.7386,-1.7404,-1.7427,-1.7447,-1.7473,-1.7477,-1.7488,-1.7503,-1.7525,-1.7539,-1.7524,-1.7557,-1.7558,-1.7548,-1.7563,-1.7559,-1.7577,-1.7561,-1.7562,-1.7562,0,-1.7226,-1.7251,-1.7289,-1.7322,-1.7333,-1.7351,-1.7381,-1.7403,-1.7432,-1.7443,-1.7465,-1.7479,-1.7505,-1.7504,-1.7541,-1.7531,-1.7546,-1.7558,-1.7559,-1.7563,-1.756,-1.7567,-1.7583,-1.7586,-1.7567,-1.7566,-1.7566,0,-1.7223,-1.7267,-1.7295,-1.7309,-1.7349,-1.7362,-1.7379,-1.7407,-1.7425,-1.7451,-1.7463,-1.7492,-1.7508,-1.7531,-1.7552,-1.7549,-1.7588,-1.7588,-1.7599,-1.7598,-1.7605,-1.7604,-1.7624,-1.7616,-1.7616,-1.7616,-1.7616,0,-1.7239,-1.7261,-1.7295,-1.7312,-1.7338,-1.7361,-1.7386,-1.7404,-1.7429,-1.7451,-1.7468,-1.7488,-1.7515,-1.7539,-1.7556,-1.7585,-1.7592,-1.7603,-1.7607,-1.7601,-1.7599,-1.761,-1.7609,-1.7616,-1.7616,-1.7616,-1.7616,0,-1.724,-1.7264,-1.7296,-1.7331,-1.734,-1.7357,-1.7388,-1.7406,-1.7425,-1.7451,-1.7459,-1.7489,-1.7518,-1.7542,-1.758,-1.7592,-1.7621,-1.7626,-1.7611,-1.7613,-1.7622,-1.7621,-1.7649,-1.7654,-1.7643,-1.7643,-1.7643,0,-1.7248,-1.7266,-1.7303,-1.7319,-1.7336,-1.736,-1.7378,-1.7402,-1.742,-1.7454,-1.7468,-1.7498,-1.7523,-1.7568,-1.7593,-1.7623,-1.7628,-1.7636,-1.7633,-1.7626,-1.7628,-1.7627,-1.7629,-1.7636,-1.7636,-1.7636,-1.7636,0,-1.726,-1.7271,-1.7296,-1.7325,-1.7346,-1.737,-1.7395,-1.7407,-1.7435,-1.7455,-1.7484,-1.7504,-1.7542,-1.7572,-1.7604,-1.7622,-1.7634,-1.7637,-1.7641,-1.7635,-1.7625,-1.763,-1.7611,-1.7636,-1.7636,-1.7636,-1.7636,-1.7636,-1.7265,-1.7282,-1.731,-1.7338,-1.7359,-1.7381,-1.74,-1.7421,-1.7446,-1.7479,-1.7492,-1.7522,-1.7551,-1.7595,-1.7614,-1.7638,-1.764,-1.7646,-1.7647,-1.7648,-1.7647,-1.7622,-1.7644,-1.7644,-1.7644,-1.7644,-1.7645,0,-1.7278,-1.7297,-1.7322,-1.7356,-1.7378,-1.7387,-1.7415,-1.7432,-1.7458,-1.7484,-1.7509,-1.7543,-1.7572,-1.76,-1.7631,-1.7645,-1.7651,-1.7652,-1.7651,-1.7655,-1.7644,-1.7637,-1.7646,-1.7646,-1.7646,-1.7646,-1.7646,-1.7646,-1.7287,-1.7315,-1.7329,-1.7368,-1.7388,-1.7417,-1.7432,-1.7454,-1.7475,-1.7512,-1.7536,-1.7554,-1.7581,-1.7614,-1.7641,-1.7648,-1.7659,-1.7658,-1.7667,-1.7656,-1.7656,-1.7655,-1.7649,-1.766,-1.766,-1.7676,-1.7676,-1.7676]}]]